sat.trackr.live / text

‹ back to catalog

STARLINK-1606

NORAD 46144 · 2020-057AD

PAYLOAD ACTIVE UNKNOWN

§ Identity

Operator
Country
US
Launch date
2020-08-18
Launch site
AFETR
Launch vehicle
Mass (kg)
RCS (m²)

Purposes: comms

External: N2YO · Heavens-Above · Gunter

§ Orbital elements

Epoch: 2026-06-27T04:17:33.076320Z

Period
88.04 min
Inclination
53.0214°
Eccentricity
0.0009775
Mean motion
16.35665205 rev/d
Perigee alt
171.0 km
Apogee alt
183.8 km
Semi-major
6,555.5 km
B*
7.2168e-4
RAAN
66.0503°
Arg perigee
253.3345°
Mean anomaly
106.6627°
Rev number
31,248

§ Raw data

STARLINK-16061 46144U 20057AD  26178.17885505  .06114515  12207-4  72168-3 0  99922 46144  53.0214  66.0503 0009775 253.3345 106.6627 16.35665205312484

JSON: /api/v1/satellites/46144 · /tle

For live sub-satellite position, see the globe view (requires WebGL).

§ Visibility from observer

Set your observer location to see the next 7 days of passes ≥ 10°. The values pass through the URL so the page stays shareable.

No JS? Fill the form by hand. The geolocation button needs JavaScript.